Regional Weather Roundup
Issued by NWS

Home | Current Version | Previous Version | Graphics & Text | Print | Product List | Glossary On
Versions: 1 2 3 4 5 6 7 8 9 10 11 12 13 14 15 16 17 18 19 20 21 22 23 24 25 26 27 28 29 30 31 32 33 34 35 36 37 38 39 40 41 42 43 44 45 46 47 48 49 50
000
ASUS45 KBOU 232307
RWRCO

WEATHER ROUNDUP FOR COLORADO
NATIONAL WEATHER SERVICE DENVER/BOULDER CO
500 PM MDT MON MAY 23 2016

NOTE: "FAIR" INDICATES FEW OR NO CLOUDS BELOW 12000 FEET WITH NO
SIGNIFICANT WEATHER AND/OR OBSTRUCTIONS TO VISIBILITY.

COZ001>005-013-030-031-240000-
...NORTHWEST COLORADO...

CITY           SKY/WX    TMP DP  RH WIND       PRES   REMARKS
CRAIG          FAIR      64  27  24 CALM      29.90F
HAYDEN         FAIR      57  27  30 S9G29     29.93S
MEEKER         FAIR      64  23  21 VRB5      29.89F
MOUNT WERNER   NOT AVBL
STEAMBOAT SPGS FAIR      59  26  28 NW9       29.94S
WALDEN         FAIR      55  23  28 W16       30.00R
$$

COZ006>008-011-240000-
...WEST CENTRAL VALLEYS...

CITY           SKY/WX    TMP DP  RH WIND       PRES   REMARKS
GRAND JUNCTION FAIR      72  22  15 VRB3G18   29.81F
MONTROSE       FAIR      72  13  10 W20G25    29.87S
EAGLE          MOSUNNY   64  21  19 W15       29.92S
RIFLE          CLOUDY    68  25  19 VRB3      29.84F
DELTA          FAIR      78  13   8 SW17      29.83F
NUCLA          FAIR      70  12  11 SW16G24   29.93F
$$

COZ017>023-064>068-240000-
...SOUTHWEST COLORADO...

CITY           SKY/WX    TMP DP  RH WIND       PRES   REMARKS
DURANGO        FAIR      69  21  16 W13G20    29.95F
CORTEZ         FAIR      72  16  12 SW14G20   29.91F
PAGOSA SPRINGS FAIR      65  15  14 W14G20    30.02S
TELLURIDE      FAIR      58  11  15 SW8       30.06R
WOLF CREEK PAS PTSUNNY   39  18  41 SW31G43   30.22R
$$

COZ009-010-012-014-032>034-037-058>063-240000-
...CENTRAL COLORADO...

CITY           SKY/WX    TMP DP  RH WIND       PRES   REMARKS
ASPEN          FAIR      62  18  18 VRB6      29.94S
BUENA VISTA    FAIR      66  11  12 W17G28    29.93S
COPPER MTN     NOT AVBL
BERTHOUD PASS  FAIR      34  27  75 W14G32    30.18R WCI  24
COTTONWOOD PAS FAIR      57   3  11 W6G23     30.05R
GUNNISON       FAIR      63  18  17 W16       29.97S
KREMMLING      FAIR      64  16  15 W13G24    29.94S
LEADVILLE      FAIR      52   8  17 SW13G22   30.04R
MONARCH PASS   FAIR      43  18  36 W23G32    30.26R
SALIDA         FAIR      71  12  10 W16G26    29.98R
SUNLIGHT       PTSUNNY   50  23  34 CALM      30.13S
WILKERSON PASS CLOUDY    43  21  42 SW6       30.16R
$$

COZ069>075-240000-
...SAN LUIS VALLEY/SANGRE DE CRISTO MOUNTAINS...

CITY           SKY/WX    TMP DP  RH WIND       PRES   REMARKS
ALAMOSA        FAIR      70  19  14 W22G29    29.95F
LA VETA PASS   PTSUNNY   54  21  28 S18G31    30.09S
SAGUACHE       FAIR      68  14  12 W21G30    29.95S
$$

COZ035-036-038>040-240000-
...NORTHERN COLORADO FRONT RANGE...

CITY           SKY/WX    TMP DP  RH WIND       PRES   REMARKS
DENVER INTL AP PTSUNNY   63  44  50 NE16      29.88F
DMNS CITY PARK   N/A     63  41  43 NE18      29.86F
AURORA         NOT AVBL
FRONT RANGE AP PTSUNNY   59  41  51 N17G26    29.89F
ERIE MUNI ARPT PTSUNNY   61  42  50 E8        29.88R
BOULDER MUN AP FAIR      64  43  45 E5        29.86S
CENTENNIAL     FAIR      64  36  35 NE6       29.89F
BROOMFIELD     PTSUNNY   59  43  55 E9        29.89S
FORT COLLINS   FAIR      39  39 100 E16       29.88R
LONGMONT       FAIR      68  44  40 E6        29.89R
$$

COZ041-046-047-076>085-087-088-240000-
...PIKES PEAK/PALMER DIVIDE AND SOUTHERN FOOTHILLS...

CITY           SKY/WX    TMP DP  RH WIND       PRES   REMARKS
COLO. SPRINGS  FAIR      69  30  23 S10       29.89S
A. F. ACADEMY  NOT AVBL
SCHRIEVER AFB  NOT AVBL
ELLICOTT       FAIR     N/A N/A N/A S14G22    29.86F
FALCON         FAIR      67  28  22 MISG      29.93R
FORT CARSON    NOT AVBL
LIMON          FAIR      72  33  24 S12       29.85F
MONUMENT HILL  FAIR      61  32  33 SW6       29.95R
TRINIDAD       FAIR      76  33  21 CALM      29.82F
$$

COZ042>045-048>051-090-091-240000-
...NORTHEAST COLORADO...

CITY           SKY/WX    TMP DP  RH WIND       PRES   REMARKS
GREELEY ARPT   FAIR      63  39  42 SE22      29.86F
AKRON          PTSUNNY   68  35  29 SW5       29.85F
BURLINGTON     FAIR      75  37  25 S8G17     29.82F
WRAY           FAIR      77  37  24 SE10G16   29.82F
STERLING       CLOUDY    70  37  30 W12       29.84S
HOLYOKE        FAIR      77  36  22 SE10      29.83S
FORT MORGAN    FAIR      65  42  44 NW10      29.90F
$$

COZ086-089-092>099-240000-
...SOUTHEAST COLORADO...

CITY           SKY/WX    TMP DP  RH WIND       PRES   REMARKS
PUEBLO         FAIR      80  36  20 E17G23    29.76F
LA JUNTA       FAIR      82  38  20 E13       29.75F
LAMAR          FAIR      82  49  31 E12       29.74F
SPRINGFIELD      N/A     80  42  25 S17G23    29.77F
$$



USA.gov is the U.S. government's official web portal to all federal, state and local government web resources and services.